www.pogodaiklimat.ru

Погода и климат >> Архив погоды >> Австралия >> Новый Южный Уэльс >> Тамворт


ПОГОДА в Тамворте

  • Прогноз погоды в Тамворте
  • Монитор погоды в Тамворте

АРХИВ ПОГОДЫ в Тамворте

Время (UTC), дата Ветер
(напр.,м/с)
 
Видим.   Явления Облачность Т
(С)
Тd
(С)
f
(%)
Тe
(С)
Тes
(С)
Комфортность P
(гПа)
Po
(гПа)
Тmin
(С)
Tmax
(С)
R
(мм)
R24
(мм)
S
(см)
19 19.03 Ю 4 н/о н/о +17.0 +13.9 82 +16 +16 1011.1 966.3
20 19.03 ЮВ 3 н/о н/о +16.7 +13.4 81 +17 +17 1011.8 966.9
21 19.03 ЮВ 4 н/о н/о +18.9 +14.0 73 +20 +20 1012.4 967.5
22 19.03 ЮВ 4 н/о н/о +20.7 +13.6 64 +23 +23 комфорт 1012.7 967.8
23 19.03 В 2 н/о н/о +23.4 +13.3 53 +27 +27 душно 1013.2 968.3
00 20.03 Ю 3 н/о н/о +24.9 +12.2 45 +27 +27 жарко 1013.0 968.1
01 20.03 ЮЗ 3 н/о 1/1 1000 м
[]
+26.6 +12.6 42 +28 +41 жарко 1012.6 967.7 +16.8
02 20.03 Ю 3 н/о н/о +28.0 +12.4 38 +29 +29 жарко 1011.8 966.9
03 20.03 З 3 н/о н/о +28.8 +11.4 34 +29 +29 жарко 1011.0 966.2
04 20.03 З 3 н/о 1/0 2000 м
[]
+29.2 +10.8 32 +30 +39 жарко 1010.4 965.6
05 20.03 З 4 н/о н/о +29.9 +10.5 30 +30 +30 жарко 1010.0 965.2
06 20.03 Ю 4 н/о н/о +30.3 +10.3 29 +30 +30 жарко 1009.8 965.0
07 20.03 ЮВ 4 н/о н/о +28.9 +10.6 32 +29 +29 жарко 1010.1 965.3
08 20.03 Ю 5 н/о н/о +26.9 +11.8 39 +28 +28 жарко 1010.6 965.8
09 20.03 Ю 5 н/о н/о +24.8 +12.7 47 +27 +27 жарко 1011.3 966.5
10 20.03 Ю 6 н/о н/о +23.9 +13.2 51 +26 +26 жарко 1012.0 967.1
11 20.03 ЮВ 5 н/о н/о +22.9 +13.4 55 +26 +26 жарко 1012.5 967.6
12 20.03 ЮВ 5 н/о н/о +21.7 +13.1 58 +24 +24 комфорт 1012.9 968.0
13 20.03 ЮВ 5 н/о н/о +21.8 +13.2 58 +24 +24 комфорт 1013.3 968.4 +31.2
14 20.03 ЮВ 4 н/о н/о +20.5 +13.7 65 +23 +23 комфорт 1013.5 968.6
15 20.03 ЮВ 4 н/о н/о +19.9 +14.0 69 +22 +22 комфорт 1013.2 968.3
16 20.03 ЮВ 5 н/о н/о +19.2 +14.0 72 +20 +20 1012.7 967.8
17 20.03 ЮВ 5 н/о н/о +18.3 +13.8 75 +18 +18 1012.6 967.7
18 20.03 ЮВ 4 н/о н/о +18.2 +13.7 75 +18 +18 1012.6 967.7
19 20.03 Ю 5 н/о н/о +17.6 +13.7 78 +17 +17 1012.8 967.9
20 20.03 ЮВ 4 н/о н/о +17.3 +13.4 78 +17 +17 1013.5 968.6
21 20.03 ЮВ 4 н/о н/о +19.4 +14.0 71 +21 +21 комфорт 1014.0 969.0
22 20.03 ЮВ 4 н/о н/о +22.4 +14.3 60 +26 +26 жарко 1014.5 969.5
23 20.03 ЮВ 4 н/о н/о +24.6 +13.8 51 +27 +27 жарко 1014.8 969.8
00 21.03 С 1 н/о н/о +26.8 +12.8 42 +28 +28 жарко 1014.8 969.8
01 21.03 С 1 н/о н/о +28.6 +10.8 33 +29 +29 жарко 1014.5 969.5 +17.1
02 21.03 ЮЗ 2 н/о н/о +29.2 +9.9 30 +29 +29 жарко 1013.6 968.7
03 21.03 Ю 3 н/о н/о +30.6 +9.5 27 +30 +30 жарко 1012.4 967.5
04 21.03 Ю 4 н/о 1/0 2000 м
[]
+30.1 +9.6 28 +30 +37 жарко 1011.6 966.7
05 21.03 ЮЗ 4 н/о н/о +32.7 +9.5 24 +32 +32 жарко 1011.0 966.2
06 21.03 В 4 н/о н/о +31.9 +8.2 23 +31 +31 жарко 1010.8 966.0
07 21.03 Ю 5 н/о н/о +30.8 +9.1 26 +30 +30 жарко 1011.0 966.2
08 21.03 Ю 7 н/о н/о +28.1 +10.8 34 +29 +29 жарко 1011.6 966.7
09 21.03 Ю 6 н/о н/о +26.2 +11.9 41 +28 +28 жарко 1012.6 967.7
10 21.03 Ю 6 н/о н/о +24.9 +12.8 47 +27 +27 жарко 1013.8 968.8
11 21.03 ЮВ 6 н/о н/о +24.3 +13.5 51 +27 +27 жарко 1014.5 969.5
12 21.03 ЮВ 6 н/о н/о +23.3 +13.8 55 +27 +27 душно 1014.7 969.7
13 21.03 ЮВ 5 н/о н/о +22.7 +14.5 60 +26 +26 жарко 1014.8 969.8 +33.4
14 21.03 ЮВ 5 н/о н/о +21.9 +14.5 63 +25 +25 комфорт 1014.9 969.9
15 21.03 ЮВ 4 н/о н/о +20.9 +14.5 67 +24 +24 комфорт 1015.1 970.1
16 21.03 ЮВ 4 н/о н/о +20.6 +14.7 69 +24 +24 комфорт 1014.5 969.5
17 21.03 ЮВ 4 н/о н/о +19.4 +14.4 73 +21 +21 комфорт 1014.3 969.3
18 21.03 ЮВ 4 н/о н/о +19.3 +14.6 74 +21 +21 комфорт 1014.4 969.4
22 21.03 В 2 н/о н/о +23.7 +15.2 59 +27 +27 жарко 1016.2 971.1
23 21.03 З 1 н/о н/о +25.2 +14.3 51 +28 +28 жарко 1016.3 971.2
01 22.03 СЗ 2 н/о н/о +28.6 +13.7 40 +30 +30 жарко 1015.4 970.4 +17.9
02 22.03 З 3 н/о н/о +30.4 +13.7 36 +32 +32 жарко 1014.2 969.2
03 22.03 СЗ 3 н/о н/о +31.7 +12.0 30 +32 +32 жарко 1012.9 968.0
04 22.03 ЮЗ 3 н/о н/о +31.5 +10.8 28 +31 +31 жарко 1011.7 966.8
05 22.03 С 2 н/о н/о +31.8 +9.9 26 +31 +31 жарко 1010.8 966.0
06 22.03 ЮЗ 4 н/о н/о +31.5 +9.1 25 +31 +31 жарко 1010.5 965.7
07 22.03 ЮЗ 6 н/о 10/0
[]
+30.3 +9.8 28 +30 +30 жарко 1011.4 966.6
08 22.03 ЮЗ 4 н/о н/о +26.1 +8.6 33 +26 +26 жарко 1012.8 967.9
09 22.03 Ю 12 н/о н/о +19.8 +12.8 64 +20 +20 1015.0 970.0
10 22.03 ЮВ 9 н/о 10/0
[]
+19.8 +12.3 62 +21 +21 комфорт 1017.0 971.9
11 22.03 В 8 н/о н/о +18.2 +13.7 75 +18 +18 1017.7 972.6
12 22.03 В 1 н/о н/о +18.5 +14.4 77 +20 +20 1018.0 972.9
13 22.03 СВ 5 н/о в посл. час дождь {туман} 10/0
[]
+18.7 +14.8 78 +19 +19 1015.9 970.9 +33.5
14 22.03 ЮЗ 4 н/о н/о +18.4 +14.3 77 +19 +19 1014.6 969.6
15 22.03 Ю 6 н/о н/о +18.2 +14.3 78 +18 +18 1014.4 969.4
16 22.03 В 3 н/о {туман} 10/0
[]
+18.3 +14.4 78 +19 +19 1013.8 968.8
17 22.03 ЮЗ 2 н/о н/о +17.1 +13.8 81 +18 +18 1013.9 968.9
18 22.03 ЮВ 3 н/о н/о +16.8 +13.9 83 +17 +17 1014.2 969.2
19 22.03 ЮВ 2 н/о 6/0
[]
+16.5 +13.2 81 +17 +17 1014.3 969.3
20 22.03 Ю 4 н/о н/о +16.1 +13.4 84 +15 +15 1014.4 969.4
21 22.03 ЮВ 4 н/о н/о +18.6 +14.3 76 +19 +19 1014.8 969.8
22 22.03 ЮВ 3 н/о 4/0
[]
+20.9 +14.1 65 +24 +27 комфорт 1015.0 970.0
23 22.03 ЮВ 3 н/о н/о +24.4 +15.1 56 +27 +27 жарко 1015.1 970.1
00 23.03 С 4 н/о н/о +27.4 +15.7 49 +30 +30 жарко 1014.6 969.6
01 23.03 СЗ 6 н/о н/о +30.8 +14.4 37 +33 +33 душно 1013.9 968.9 +16.0
02 23.03 С 5 н/о н/о +31.6 +13.4 33 +33 +33 жарко 1013.0 968.1
03 23.03 З 6 н/о н/о +33.7 +12.7 28 +34 +34 очень
жарко
1012.0 967.1
04 23.03 З 6 н/о н/о +34.4 +12.1 26 +34 +34 очень
жарко
1010.9 966.1
05 23.03 СЗ 5 н/о н/о +35.5 +11.8 24 +35 +35 очень
жарко
1010.3 965.5
06 23.03 З 6 н/о н/о +33.7 +9.7 23 +33 +33 жарко 1010.0 965.2
07 23.03 СЗ 5 н/о 3/0
[]
+33.4 +11.9 27 +33 +34 жарко 1009.7 964.9
08 23.03 С 7 н/о н/о +31.5 +10.2 27 +31 +31 жарко 1010.1 965.3
09 23.03 С 5 н/о н/о +29.4 +10.0 30 +29 +29 жарко 1010.6 965.8
10 23.03 СЗ 2 н/о 6/0
[]
+26.6 +10.3 36 +27 +27 жарко 1011.1 966.3
11 23.03 З 2 н/о н/о +26.9 +11.4 38 +28 +28 жарко 1011.1 966.3
12 23.03 ЮВ 6 н/о н/о +26.0 +13.2 45 +28 +28 жарко 1011.6 966.7
13 23.03 Ю 5 н/о 10/0 2000 м
[]
+24.5 +14.9 55 +27 +27 жарко 1011.9 967.0 +35.8
14 23.03 СВ 2 н/о н/о +22.1 +17.7 76 +27 +27 душно 1012.7 967.8
15 23.03 ЮВ 3 н/о н/о +21.8 +17.2 75 +26 +26 душно 1012.7 967.8
16 23.03 Ю 3 н/о туман местами 10/10 1500 м
[]
+21.7 +16.6 73 +26 +26 душно 1013.1 968.2
17 23.03 СВ 3 н/о н/о +20.8 +17.2 80 +25 +25 комфорт 1012.8 967.9
18 23.03 СВ 2 н/о н/о +20.9 +16.9 78 +25 +25 комфорт 1012.6 967.7
19 23.03 Ю 4 н/о 4/0
[]
+20.3 +16.9 81 +23 +23 комфорт 1012.5 967.6
20 23.03 ЮВ 4 н/о н/о +20.4 +16.6 79 +24 +24 комфорт 1012.8 967.9
21 23.03 Ю 1 н/о н/о +21.9 +17.3 75 +26 +26 душно 1013.6 968.7
22 23.03 ЮВ 3 н/о н/о +25.1 +16.8 60 +29 +29 душно 1013.4 968.5
23 23.03 СЗ 3 н/о н/о +27.5 +16.8 52 +31 +31 душно 1013.2 968.3
00 24.03 С 7 н/о н/о +31.6 +13.8 34 +33 +33 жарко 1013.1 968.2
01 24.03 С 5 н/о н/о +33.3 +13.9 31 +34 +34 очень
жарко
1012.5 967.6 +20.3
02 24.03 СЗ 8 н/о н/о +36.0 +11.6 23 +36 +36 очень
жарко
1011.3 966.5
03 24.03 З 8 н/о н/о +36.6 +10.7 21 +36 +36 очень
жарко
1010.6 965.8
04 24.03 СЗ 9 н/о 1/0
[]
+35.1 +10.2 22 +34 +35 очень
жарко
1009.8 965.0
05 24.03 СЗ 6 н/о н/о +36.3 +10.5 21 +35 +35 очень
жарко
1008.9 964.2
06 24.03 ЮЗ 9 н/о н/о +32.6 +11.7 28 +33 +33 жарко 1009.0 964.3
07 24.03 С 10 н/о в посл. час дождь {туман} 4/0
[]
+29.5 +16.0 44 +33 +33 душно 1009.5 964.7
08 24.03 С 6 н/о н/о +26.7 +16.6 54 +30 +30 душно 1010.2 965.4
09 24.03 С 5 н/о н/о +26.9 +15.6 50 +30 +30 душно 1010.3 965.5
10 24.03 З 7 н/о {туман} 10/0
[]
+26.5 +15.8 52 +30 +30 душно 1011.6 966.7
11 24.03 В 4 н/о н/о +25.0 +17.0 61 +29 +29 душно 1011.2 966.4
12 24.03 ЮВ 4 н/о н/о +24.5 +16.5 61 +28 +28 душно 1011.3 966.5
13 24.03 СЗ 3 н/о 10/10 1500 м
[]
+23.5 +17.3 68 +27 +27 душно 1012.6 967.7 +37.8
14 24.03 СЗ 2 н/о н/о +22.5 +18.1 76 +28 +28 душно 1012.1 967.2
15 24.03 Ю 1 н/о н/о +22.1 +18.5 80 +27 +27 душно 1011.6 966.7
16 24.03 ЮВ 3 н/о {осадки} 10/0 2000 м
[]
+22.3 +18.9 81 +28 +28 душно 1010.8 966.0 0.2
17 24.03 В 3 н/о н/о +22.3 +18.5 79 +28 +28 душно 1009.9 965.1
18 24.03 З 4 н/о н/о +21.5 +18.3 82 +26 +26 душно 1010.3 965.5
19 24.03 В 2 н/о 10/0
[]
+21.6 +18.4 82 +26 +26 душно 1010.9 966.1
20 24.03 ЮЗ 1 н/о н/о +21.2 +18.4 84 +25 +25 комфорт 1011.2 966.4
21 24.03 С 4 н/о н/о +24.3 +15.0 56 +27 +27 жарко 1011.9 967.0
22 24.03 С 8 н/о 10/0
[]
+26.2 +13.0 44 +28 +28 жарко 1012.3 967.4
23 24.03 С 8 н/о н/о +27.6 +12.8 40 +29 +29 жарко 1012.7 967.8
00 25.03 З 6 н/о н/о +27.1 +13.1 42 +29 +29 жарко 1013.5 968.6
01 25.03 З 6 н/о 10/10 1000 м
[]
+26.0 +14.8 50 +29 +29 душно 1014.3 969.3 +21.0
02 25.03 З 8 н/о н/о +25.0 +14.8 53 +28 +28 жарко 1014.7 969.7
03 25.03 З 5 н/о н/о +25.0 +15.9 57 +28 +28 жарко 1013.9 968.9
04 25.03 З 4 н/о 6/0 2000 м
[]
+25.4 +15.4 54 +28 +34 жарко 1013.4 968.5
05 25.03 СЗ 4 н/о н/о +25.6 +15.3 53 +29 +29 душно 1013.3 968.4
06 25.03 СЗ 5 н/о н/о +25.7 +15.1 52 +29 +29 душно 1013.1 968.2
07 25.03 СЗ 5 н/о 10/0 2000 м
[]
+24.9 +15.2 55 +28 +28 жарко 1013.8 968.8
08 25.03 С 4 н/о н/о +24.4 +15.6 58 +27 +27 жарко 1013.5 968.6
09 25.03 С 3 н/о н/о +23.5 +15.8 62 +27 +27 душно 1013.6 968.7
10 25.03 С 2 н/о 10/0
[]
+23.3 +15.9 63 +28 +28 душно 1013.6 968.7
11 25.03 З 2 н/о н/о +22.1 +15.7 67 +26 +26 душно 1014.2 969.2
12 25.03 З 2 н/о н/о +21.8 +15.9 69 +25 +25 комфорт 1014.3 969.3
13 25.03 С 2 н/о 10/0
[]
+21.6 +16.1 71 +25 +25 комфорт 1014.4 969.4 +27.8
14 25.03 СЗ 2 н/о н/о +21.4 +16.1 72 +25 +25 комфорт 1014.4 969.4
15 25.03 СВ 2 н/о н/о +21.8 +16.5 72 +26 +26 душно 1014.1 969.1
16 25.03 СЗ 2 н/о 10/0
[]
+21.1 +16.3 74 +24 +24 комфорт 1013.9 968.9
17 25.03 С 3 н/о н/о +21.4 +15.7 70 +25 +25 комфорт 1013.9 968.9
18 25.03 СЗ 3 н/о н/о +21.8 +14.9 65 +25 +25 комфорт 1013.9 968.9
19 25.03 С 3 н/о 10/10 600 м
[]
+21.6 +15.2 67 +25 +25 комфорт 1014.5 969.5
20 25.03 СЗ 3 н/о н/о +21.3 +15.8 71 +25 +25 комфорт 1014.6 969.6
21 25.03 З 4 н/о н/о +21.4 +16.1 72 +25 +25 комфорт 1015.4 970.4
22 25.03 З 4 н/о 10/10 600 м
[]
+21.7 +16.2 71 +25 +25 комфорт 1015.7 970.7
23 25.03 З 4 н/о н/о +22.2 +15.5 66 +26 +26 душно 1015.8 970.8
00 26.03 СЗ 5 н/о н/о +23.3 +14.8 59 +27 +27 душно 1015.7 970.7
01 26.03 ЮЗ 5 н/о 10/10 600 м
[]
+23.5 +10.9 45 +25 +25 комфорт 1016.2 971.1 +20.6
02 26.03 СЗ 3 н/о н/о +24.4 +10.7 42 +26 +26 жарко 1015.7 970.7
03 26.03 СЗ 4 н/о н/о +25.9 +11.6 41 +27 +27 жарко 1015.2 970.2
04 26.03 З 4 н/о 9/9 1000 м
[]
+26.1 +11.1 39 +27 +28 жарко 1015.0 970.0
05 26.03 ЮЗ 6 н/о н/о +24.8 +9.9 39 +26 +26 жарко 1015.1 970.1
06 26.03 З 4 н/о н/о +24.4 +9.2 38 +25 +25 комфорт 1015.1 970.1
07 26.03 ЮЗ 3 н/о н/о +23.9 +6.7 33 +24 +24 комфорт 1015.6 970.6
08 26.03 З 1 н/о н/о +21.5 +5.0 34 +22 +22 комфорт 1015.9 970.9
09 26.03 ЮЗ 3 н/о н/о +19.7 +5.7 40 +21 +21 комфорт 1016.4 971.3
10 26.03 З 1 н/о н/о +19.7 +6.1 41 +21 +21 комфорт 1017.2 972.1
11 26.03 ЮВ 3 н/о н/о +18.8 +7.3 47 +20 +20 1017.5 972.4
12 26.03 штиль 0 н/о н/о +17.6 +7.6 52 +18 +18 1017.7 972.6
13 26.03 Ю 5 н/о 1/0
[]
+18.0 +8.6 54 +18 +18 1017.4 972.3 +26.8
14 26.03 ЮВ 4 н/о н/о +16.9 +9.3 61 +17 +17 1017.5 972.4
15 26.03 ЮВ 6 н/о н/о +18.5 +10.3 59 +18 +18 1017.4 972.3
16 26.03 ЮВ 6 н/о н/о +18.8 +10.9 60 +19 +19 1017.3 972.2
17 26.03 ЮВ 7 н/о н/о +18.2 +9.5 57 +18 +18 1017.1 972.0
18 26.03 ЮВ 7 н/о н/о +17.5 +7.8 53 +17 +17 1017.3 972.2

 

Местоположение метеостанции Тамворт (Новый Южный Уэльс, Австралия): широта -31.06 долгота 150.83 высота над уровнем моря 396 м.

В архиве по умолчанию представлена погода в Тамворте за последнюю неделю. Архивные данные за месяц целиком и за предыдущие месяцы, начиная с января 2011 года, Вы можете получить, выбрав интересующий диапазон дат из раскрывающегося списка и нажав кнопку "Ввод!".


*Определитесь, кто Вы:
робот инопланетянин человек

Внимание! Время в таблицах - всемирное. Для получения местного времени необходимо прибавить поправку, которая равна 10 ч.

Смотрите также архив погоды в соседних городах и на ближайших метеорологических станциях:

Погода в Ганнеде (Новый Южный Уэльс, Австралия) (57 км)
Погода в Меррерунди (Новый Южный Уэльс, Австралия) (75 км)
Погода в Армидейле (Новый Южный Уэльс, Австралия) (96 км)
Погода в Сконе (Новый Южный Уэльс, Австралия) (108 км)
Погода в Наррабри (Новый Южный Уэльс, Австралия) (127 км)
Погода в Мерриве (Новый Южный Уэльс, Австралия) (139 км)
Погода в Инверелле (Новый Южный Уэльс, Австралия) (144 км)
Погода в Кунабарабране (Новый Южный Уэльс, Австралия) (151 км)
Погода в Глен Иннес (Новый Южный Уэльс, Австралия) (175 км)
Погода в Тари (Новый Южный Уэльс, Австралия) (184 км)

Пояснения к столбцам:

Ветер - указаны скорость ветра в м/с - средняя за 10 мин, порывы в срок и между сроками (в фигурных скобках) и направление, откуда дует ветер: С - северный, СВ - северо-восточный, В - восточный, ЮВ - юго-восточный, Ю - южный, ЮЗ - юго-западный, З - западный, СЗ - северо-западный.
Видимость - горизонтальная дальность видимости в метрах или километрах. При видимости от 1 до 10 км при отсутствии осадков обычно наблюдается дымка, при ухудшении видимости до 1 км и менее - туман. В сухую погоду видимость может ухудшаться дымом, пылью или мглою.
Явления - указаны атмосферные явления, наблюдавшиеся в срок или в последний час перед сроком; фигурными скобками обозначены явления, наблюдавшиеся между сроками (за 1-3 часа до срока); квадратными скобками обозначены град или гололедные отложения с указанием их диаметра в мм.
Облачность - указаны через наклонную черту общая и нижняя облачность в баллах и высота нижней границы облаков в метрах; квадратными скобками обозначены формы облаков: Ci - перистые, Cs - перисто-слоистые, Cc - перисто-кучевые, Ac - высококучевые, As - высокослоистые, Sc - слоисто-кучевые, Ns - слоисто-дождевые, Cu - кучевые, Cb - кучево-дождевые. Подробнее классификацию облаков см. в Атласе облаков (PDF).
T - Температура воздуха - температура, измеренная на высоте 2 м над землей.
Td - Температура точки росы - температура, при понижении до которой содержащийся в воздухе водяной пар достигнет насыщения.
f - Относительная влажность воздуха - влажноcть воздуха, измеренная на высоте 2 м над землей.
Te - Эффективная температура - температура, которую ощущает одетый по сезону человек в тени. Характеристика душности погоды. При расчете учитывается влияние влажности воздуха и скорости ветра на теплоощущения человека.
Tes - Эффективная температура на солнце - температура, которую ощущает человек, с поправкой на солнечный нагрев. Характеристика знойности погоды. Зависит от высоты солнца над горизонтом, облачности и скорости ветра. Ночью, в пасмурную погоду, а также при ветре 12 м/с и более поправка равна нулю.
P - Атмосферное давление - приведенное к уровню моря атмосферное давление.
Po - Атмосферное давление - измеренное на уровне метеостанции атмосферное давление.
Tmin - Минимальная температура - минимум температуры воздуха на высоте 2 м над землей.
Tmax - Максимальная температура - максимум температуры воздуха на высоте 2 м над землей.
R - Количество осадков - Количество выпавших осадков за период времени, мм. При наведении курсора мыши на число - период времени, за который выпало указанное количество осадков.
R24 - Количество осадков - Количество выпавших осадков за 24 часа, мм.
S - Снежный покров - Высота снежного покрова, см. При наведении курсора мыши на число - состояние снежного покрова и степень покрытия местности в баллах.